This is the latest recevied weather packets stored in our database for station/object KC5DAQ-27. If no packets are shown the sender has not sent any weather packets the latest 1 day(s).
| Time | Temp. | Humidity | Pressure | Rain* | Wind** | Luminosity | Snow |
|---|---|---|---|---|---|---|---|
| 1778097572 | 28.89° C | 83% | 1000.3 hPa | 0 mm | - | 369 W/m² | - |
| 1778097392 | 28.89° C | 83% | 1000.3 hPa | 0 mm | - | 464 W/m² | - |
| 1778097152 | 28.89° C | 84% | 1000.3 hPa | 0 mm | - | 462 W/m² | - |
| 1778097032 | 28.89° C | 85% | 1000.3 hPa | 0 mm | - | 450 W/m² | - |
| 1778096672 | 28.33° C | 86% | 1000.3 hPa | 0 mm | - | 457 W/m² | - |
| 1778096613 | 28.33° C | 86% | 1000.4 hPa | 0 mm | - | 457 W/m² | - |
| 1778096553 | 28.33° C | 86% | 1000.4 hPa | 0 mm | - | 457 W/m² | - |
| 1778096493 | 28.33° C | 86% | 1000.4 hPa | 0 mm | - | 457 W/m² | - |
| 1778096434 | 28.33° C | 86% | 1000.3 hPa | 0 mm | - | 492 W/m² | - |
| 1778096193 | 28.33° C | 87% | 1000.3 hPa | 0 mm | - | 686 W/m² | - |
| 1778096131 | 27.78° C | 87% | 1000.5 hPa | 0 mm | - | 649 W/m² | - |
| 1778095831 | 27.78° C | 88% | 1000.6 hPa | 0 mm | - | 777 W/m² | - |
| 1778095652 | 27.22° C | 89% | 1000.5 hPa | 0 mm | - | 580 W/m² | - |
| 1778095592 | 27.22° C | 88% | 1000.5 hPa | 0 mm | - | 557 W/m² | - |
| 1778095411 | 27.22° C | 89% | 1000.6 hPa | 0 mm | - | 484 W/m² | - |
| 1778095231 | 27.22° C | 90% | 1000.6 hPa | 0 mm | - | 517 W/m² | - |
| 1778095173 | 27.22° C | 90% | 1000.6 hPa | 0 mm | - | 540 W/m² | - |
| 1778094870 | 26.67° C | 90% | 1000.7 hPa | 0 mm | - | 417 W/m² | - |
| 1778094747 | 26.67° C | 90% | 1000.7 hPa | 0 mm | - | 287 W/m² | - |
| 1778094440 | 26.67° C | 90% | 1000.8 hPa | 0 mm | - | 211 W/m² | - |
| 1778094378 | 26.67° C | 90% | 1000.7 hPa | 0 mm | - | 202 W/m² | - |
| 1778094255 | 26.67° C | 90% | 1000.8 hPa | 0 mm | - | 160 W/m² | - |
| 1778094193 | 26.67° C | 90% | 1000.9 hPa | 0 mm | - | 127 W/m² | - |
| 1778094132 | 26.67° C | 90% | 1000.8 hPa | 0 mm | - | 118 W/m² | - |
| 1778093888 | 26.67° C | 90% | 1000.9 hPa | 0 mm | - | 132 W/m² | - |
* Rain latest hour (hover to see other rain measurements)
** Current wind speed in m/s (hover to see current wind gust speed)